Wind_Speed
18 17 16 17 17 17 17 17 17 16 16 15 14 15 16 16 14 13 13 12 11 11 10 9 9 7 7 6 4 4 3 3 2 2 2 3 3 4 5 7 9 10 12 12 12 13 13 13 14 15 16 17 18 18 19 20 22 23 22 20 19 19 21 23 24 28 30 30 32 34 36 38 38 39 41 41 40 41 42 41 40 41 41 40 36
17 16 17 17 17 16 16 16 16 16 16 16 17 18 17 15 15 14 13 13 12 10 9 9 9 8 7 7 6 5 4 3 2 2 1 2 3 4 6 8 9 10 11 12 13 13 14 15 17 18 18 18 18 18 20 21 23 24 23 21 19 19 20 23 25 28 32 32 33 34 36 38 39 40 41 43 43 44 45 45 44 44 44 44 43
17 17 17 16 15 15 14 15 15 16 18 19 18 18 16 16 15 14 14 13 11 10 10 9 9 9 8 7 6 5 4 3 2 2 1 1 2 4 7 8 9 10 11 12 14 15 17 19 19 19 18 17 18 20 21 23 24 25 24 21 20 19 20 22 25 28 32 34 34 35 37 39 40 41 42 43 44 45 46 47 47 47 47 47 47
18 17 16 15 14 14 14 15 16 18 19 19 18 17 17 16 15 14 13 11 10 11 10 10 9 8 8 7 6 5 4 3 2 2 1 2 3 5 7 9 9 9 10 12 15 17 20 22 21 19 17 18 20 22 23 24 26 26 25 22 20 20 21 23 25 27 31 34 35 36 38 39 41 42 43 44 45 46 46 47 48 49 50 50 50
18 17 16 15 15 15 15 16 18 19 19 18 18 17 17 16 15 14 12 11 11 11 11 10 9 8 7 7 5 4 4 3 3 2 2 2 3 5 7 8 9 9 10 13 16 18 20 22 22 20 18 20 21 23 25 25 26 26 25 24 22 21 22 24 26 27 30 34 37 38 39 40 42 43 43 44 46 47 47 48 49 50 52 53 53
18 17 17 16 16 16 16 18 19 20 19 18 18 18 17 16 15 13 11 11 11 11 11 10 9 8 7 6 5 4 3 3 3 2 2 3 3 5 6 7 8 8 9 11 15 17 18 21 22 21 20 22 23 24 25 26 26 25 24 24 23 23 24 26 27 28 30 33 37 39 40 41 42 44 44 44 44 46 48 51 52 52 53 56 57
19 19 18 17 17 18 19 20 20 20 19 19 19 18 18 16 15 13 12 12 12 11 11 10 9 8 7 6 5 4 3 3 3 3 2 2 2 4 6 7 7 6 6 8 13 16 17 19 22 21 21 23 25 26 26 27 26 24 23 23 24 24 25 26 27 29 31 34 37 39 41 42 42 44 45 45 44 44 45 50 55 57 56 56 57
21 20 20 19 19 20 21 21 21 20 20 19 19 19 18 17 15 14 13 13 12 12 11 10 9 8 7 6 5 4 4 3 3 3 2 2 2 3 5 7 6 4 4 7 10 13 15 18 21 22 22 24 25 26 26 27 27 26 25 25 25 25 26 27 28 30 32 35 38 40 41 42 43 45 46 46 45 46 46 47 51 56 59 59 56
22 22 22 21 21 22 23 22 21 21 21 20 20 19 18 17 16 15 14 13 13 12 11 10 9 8 7 6 5 4 4 3 3 3 3 3 2 3 5 6 4 3 4 5 7 10 13 17 20 21 21 23 24 24 25 25 26 27 27 27 27 27 26 27 28 31 33 36 38 41 42 42 44 45 47 46 46 47 47 47 50 53 56 58 57
23 24 24 23 24 24 24 23 23 23 22 21 21 20 19 18 16 15 15 14 13 12 11 10 9 8 7 6 5 5 4 4 4 4 4 3 3 4 5 6 5 3 4 5 6 9 11 16 19 19 20 22 22 22 23 24 24 25 26 26 27 27 27 28 28 30 33 36 39 41 42 43 44 45 46 46 46 46 48 49 51 53 53 57 58
24 25 25 26 26 26 25 25 24 23 23 22 21 21 19 18 17 16 16 15 13 12 11 10 9 8 7 6 6 5 5 5 5 4 4 4 4 4 5 6 5 3 3 4 6 8 11 15 18 18 19 21 21 22 22 23 24 25 25 25 24 24 26 27 28 30 32 35 38 40 42 43 43 44 45 46 47 47 48 48 50 52 52 53 56
24 26 27 28 28 27 26 26 25 24 24 23 22 21 19 18 17 16 16 15 14 13 12 11 10 9 8 7 6 6 6 6 5 5 4 3 3 3 4 3 3 2 2 3 4 7 11 14 16 16 17 19 20 22 23 24 25 25 25 24 23 22 22 23 26 29 32 35 37 39 40 41 43 44 44 46 48 48 49 49 49 50 51 50 51
26 27 29 29 29 28 27 27 26 26 25 24 23 22 20 18 17 16 17 16 15 13 12 11 10 9 8 7 7 7 6 6 6 5 4 3 1 1 2 3 2 2 2 2 3 6 10 13 13 14 16 18 20 22 24 25 26 26 26 25 24 22 22 22 23 25 29 32 35 36 37 38 41 43 44 45 48 50 50 51 50 49 49 49 49
28 29 31 30 30 30 28 27 27 26 25 25 24 22 20 19 17 16 17 16 15 14 13 12 11 10 9 8 7 7 7 7 7 7 5 3 1 1 2 3 3 3 3 3 2 5 8 10 12 14 16 18 21 23 24 26 26 27 26 26 26 25 25 25 25 26 27 29 31 33 34 36 39 42 44 45 46 49 50 51 51 50 49 48 47
30 32 32 31 31 31 29 28 28 27 26 25 24 23 21 19 18 18 17 16 14 13 13 12 11 10 9 9 8 8 9 8 8 7 6 5 3 1 3 4 4 4 4 4 4 6 6 8 11 14 16 18 21 23 24 26 26 27 27 27 28 28 28 29 29 28 28 27 28 31 34 36 38 41 44 45 46 48 49 49 50 49 49 48 46
33 34 33 33 33 32 30 29 28 27 26 24 24 23 21 20 19 18 18 18 16 14 13 12 11 11 11 10 9 9 9 9 8 8 7 7 6 3 2 3 4 4 5 5 6 7 7 8 11 14 16 19 22 23 23 25 26 27 28 29 30 30 30 31 29 28 27 26 27 31 33 36 38 41 44 46 47 49 49 49 49 49 48 48 47
35 35 35 34 34 32 31 30 29 28 26 25 24 23 22 21 20 19 19 19 17 15 14 14 12 12 12 11 10 10 10 9 9 8 8 8 8 5 3 1 2 4 4 5 6 7 7 8 10 14 16 20 22 23 23 24 26 28 29 30 31 32 33 32 30 29 28 27 28 30 33 36 39 42 45 47 49 50 50 51 51 50 49 49 47
36 36 36 35 34 33 31 30 29 29 27 26 25 24 23 22 21 19 19 19 18 17 16 15 14 13 13 13 12 11 11 10 10 9 9 9 8 6 5 2 0 2 2 3 4 5 6 8 11 14 16 19 22 22 22 24 26 28 30 31 33 34 34 34 33 32 31 30 30 32 33 37 41 44 46 48 50 50 50 51 51 50 48 47 45
37 36 36 35 34 32 31 30 29 29 28 27 26 25 23 22 21 20 20 20 20 19 17 16 16 15 14 14 13 12 11 11 11 10 10 9 8 7 6 4 3 3 4 4 5 6 7 9 11 14 16 19 21 21 21 23 26 27 29 31 33 34 34 34 34 33 33 33 34 35 37 39 43 45 47 49 51 50 49 49 49 48 47 46 43
37 36 36 35 33 32 31 29 29 29 28 28 26 24 23 23 22 21 21 21 21 19 18 17 16 16 15 14 13 12 12 11 10 10 10 9 8 8 7 6 7 7 8 8 7 7 9 11 13 15 16 18 20 20 20 22 25 26 28 30 32 32 33 34 33 33 33 34 35 37 39 42 45 47 49 51 52 52 50 49 47 46 45 43 41
36 36 36 35 34 32 31 30 30 30 29 27 26 24 24 24 23 22 22 22 22 21 19 18 16 15 14 13 12 12 11 11 10 10 10 9 8 8 8 8 8 9 9 8 8 9 11 13 15 16 17 18 19 19 20 21 23 25 27 28 29 30 31 33 33 33 33 34 36 38 40 43 46 48 50 52 53 52 51 49 47 45 43 40 38
36 36 36 35 34 32 31 30 30 30 29 28 26 26 25 25 24 23 23 22 22 21 19 18 16 14 13 12 12 11 10 10 9 9 9 8 8 8 8 9 9 9 8 8 9 10 12 14 15 16 17 18 19 19 19 21 22 24 26 27 28 30 31 32 33 34 34 35 37 39 41 45 48 50 51 52 53 53 52 50 48 46 42 36 33
36 36 36 35 34 32 32 32 31 31 30 28 27 27 27 26 24 24 23 22 21 20 18 17 15 13 12 11 11 10 9 8 8 8 7 7 7 7 8 8 8 8 8 8 10 11 13 14 15 16 17 18 18 18 19 21 22 24 25 27 28 30 32 33 33 34 35 36 37 40 43 46 49 50 51 52 53 53 53 51 49 48 43 37 33
37 37 36 35 34 33 32 33 33 32 30 28 28 28 27 26 25 24 23 22 21 20 18 16 14 13 11 10 10 9 8 6 6 6 6 6 6 6 7 7 8 8 8 9 10 11 12 13 14 15 16 17 18 18 19 20 22 23 25 27 29 31 33 34 35 34 34 36 38 41 44 46 49 51 51 52 53 54 53 52 50 49 45 41 37
38 38 37 36 34 33 34 34 33 31 30 29 30 30 28 26 25 24 21 20 20 20 18 16 14 11 10 9 8 8 7 5 4 5 5 5 4 4 5 6 7 7 7 8 9 10 11 12 13 14 16 17 18 18 18 19 21 23 25 27 29 31 34 35 35 34 34 36 38 41 43 46 48 50 51 52 53 54 54 53 53 51 49 46 41
40 38 38 36 35 35 35 35 32 30 29 30 30 30 29 26 24 22 20 18 18 18 17 15 14 11 9 8 8 7 6 4 4 4 4 3 2 3 4 5 6 6 7 7 8 9 10 11 13 14 16 18 19 18 18 19 20 23 25 27 29 31 33 35 35 34 33 34 37 40 42 45 48 50 51 53 54 54 55 55 55 54 52 51 47
40 39 39 37 36 36 36 35 32 30 30 31 31 30 28 25 23 22 21 20 19 17 15 15 15 13 11 10 9 8 6 5 4 4 3 2 1 1 3 4 4 5 6 7 7 8 9 11 13 15 16 17 18 18 18 19 20 22 25 27 29 31 32 34 34 33 31 32 34 37 40 43 47 50 52 53 54 55 55 55 56 55 54 53 52
40 40 39 37 37 37 36 35 33 30 30 31 32 30 27 25 24 24 23 21 19 17 16 16 15 14 12 11 10 9 7 6 5 4 3 2 1 0 2 2 3 4 6 7 7 8 9 11 13 14 15 17 18 18 19 20 21 22 24 26 28 30 32 33 33 33 32 31 32 35 39 42 46 50 52 53 54 54 55 56 56 55 54 53 53
40 39 39 38 38 38 36 34 33 30 30 31 32 30 28 27 26 24 22 19 18 16 16 16 15 14 12 11 9 8 7 6 5 4 3 3 3 2 0 1 2 3 5 7 8 9 10 11 13 15 16 18 19 20 21 21 21 22 23 25 28 31 33 34 35 35 33 32 32 34 37 41 45 48 51 53 53 54 55 56 57 56 55 54 52
39 39 39 40 40 38 37 35 32 30 30 31 32 31 30 28 26 23 20 19 17 16 16 16 15 14 12 9 8 7 6 5 5 5 5 4 4 3 2 1 2 3 4 7 8 10 11 12 14 16 17 18 20 21 21 22 22 22 23 25 27 30 33 35 36 35 34 32 32 32 35 38 42 45 48 50 52 54 54 55 56 56 55 53 51
40 41 41 42 41 39 38 35 33 31 31 32 33 32 31 29 26 23 20 19 17 17 16 16 16 14 12 10 9 8 7 7 7 7 6 5 5 4 3 2 2 3 4 5 7 9 11 12 14 15 17 18 19 21 22 22 21 21 22 24 27 30 33 35 36 36 35 33 32 31 33 35 39 42 45 47 49 51 54 54 55 56 55 53 50
41 43 43 43 41 39 38 35 33 32 32 33 33 33 31 29 27 24 21 20 19 19 18 17 16 15 12 11 11 10 9 9 8 8 7 6 6 5 4 3 3 4 4 4 6 8 10 12 14 15 17 18 18 20 21 21 21 21 21 23 25 28 31 33 34 35 35 34 32 31 31 33 36 39 41 44 46 48 51 53 54 54 54 54 52
43 44 44 43 42 40 38 36 34 33 33 34 34 34 32 30 27 25 23 22 21 21 20 19 18 17 14 13 13 11 10 10 9 9 8 7 6 5 4 4 4 4 5 5 5 7 9 12 13 15 16 17 18 19 20 21 21 21 20 21 23 26 29 31 32 33 33 33 32 30 30 31 33 36 38 41 43 45 47 50 52 52 51 52 53
43 43 43 43 42 41 39 36 34 34 34 35 35 34 32 29 27 25 25 24 24 24 23 21 20 19 17 16 14 13 11 11 10 9 9 8 7 6 5 5 5 6 6 6 6 7 9 11 13 14 16 17 18 18 19 21 22 22 21 20 21 23 26 29 31 31 32 33 32 30 29 29 30 33 36 38 40 42 44 46 48 50 50 50 50
43 43 43 43 42 41 39 36 34 34 35 36 35 34 31 28 27 26 25 25 24 23 23 22 21 19 18 16 15 13 12 11 10 10 9 7 7 7 6 6 6 7 7 7 7 7 9 10 12 14 15 16 17 18 19 20 21 22 22 21 20 22 24 26 29 31 31 31 32 31 29 28 28 29 32 35 37 39 41 42 44 47 48 48 48
44 43 43 43 41 40 38 35 34 35 36 36 34 33 30 27 26 25 25 25 23 21 20 21 20 19 18 16 15 13 12 11 10 9 8 7 7 8 7 6 6 7 8 8 8 8 9 10 12 14 15 16 16 17 18 19 20 21 22 21 21 21 22 24 27 30 30 30 30 31 30 28 27 27 28 31 34 37 38 39 40 42 45 46 47
44 44 44 43 41 39 37 34 33 35 36 35 33 31 28 26 25 25 25 26 24 20 18 19 20 20 19 17 14 13 11 11 10 9 8 7 7 7 7 7 7 8 8 8 8 9 9 10 12 13 15 15 16 16 17 18 20 20 22 22 21 21 22 23 25 28 29 29 29 30 30 28 26 25 26 27 30 33 36 37 37 39 41 43 45
44 44 43 42 40 38 35 33 33 35 36 35 32 29 26 24 23 23 23 25 24 21 19 19 20 20 18 15 12 12 11 11 11 10 9 7 6 5 6 7 9 9 9 9 9 10 10 10 12 13 14 15 16 16 17 18 19 20 21 22 23 22 22 22 23 25 27 28 27 27 28 28 26 24 23 24 27 30 32 34 35 36 38 40 42
42 42 42 40 38 36 34 32 33 36 38 36 32 29 26 24 22 21 21 22 23 22 20 20 20 20 17 14 12 12 13 13 11 10 8 8 7 7 8 10 11 11 12 12 11 11 11 11 12 14 15 15 16 16 17 17 19 20 21 22 23 23 22 22 23 23 25 27 27 26 26 27 27 25 23 22 23 25 28 31 32 33 34 35 37
41 41 40 38 36 34 33 32 34 37 38 36 31 29 27 25 22 20 19 20 21 21 21 21 20 18 15 14 14 14 14 14 12 10 9 10 10 10 11 11 12 13 14 14 14 13 12 12 13 14 15 16 16 17 17 17 18 19 20 21 23 23 23 23 23 23 23 25 26 25 25 25 25 25 24 21 21 21 23 26 28 30 31 31 32
40 39 38 36 34 32 32 32 32 35 36 33 30 28 26 23 20 20 20 20 20 21 21 20 18 15 14 14 14 14 15 15 14 13 12 12 12 12 12 13 13 14 15 16 16 15 14 13 14 15 16 17 17 17 17 17 17 18 19 21 22 22 22 23 23 22 22 23 24 24 24 24 24 24 24 22 20 19 19 21 23 26 28 29 29
37 37 35 33 32 31 32 31 31 33 33 31 28 28 25 21 20 20 21 21 21 22 21 19 17 15 15 15 14 15 16 16 16 15 14 14 14 14 14 14 14 15 17 17 16 16 15 14 14 16 17 17 16 16 15 15 16 17 19 20 22 22 22 22 22 23 22 22 22 23 23 23 23 22 23 22 21 19 19 19 20 21 24 27 28
36 34 33 32 31 31 31 31 30 32 33 30 28 27 25 23 22 22 22 22 22 22 22 21 19 18 17 16 16 16 17 17 17 17 17 17 16 15 15 14 14 15 16 16 15 14 14 13 13 15 15 15 15 14 14 14 15 16 18 20 21 22 21 21 21 22 22 22 22 21 21 22 22 22 21 21 21 19 19 19 19 19 20 22 25
35 33 32 32 31 31 31 31 30 30 31 30 28 27 25 23 23 24 24 24 24 23 22 21 21 21 20 19 18 19 19 19 19 19 19 18 17 16 15 14 13 14 14 13 11 11 11 11 12 13 14 14 13 12 12 13 14 15 18 19 20 21 21 21 21 22 23 23 22 21 21 21 21 21 21 21 20 20 19 19 20 20 19 18 20
35 33 32 32 31 31 32 32 30 29 30 31 30 27 25 24 25 25 25 25 25 24 23 22 22 23 23 21 21 22 22 21 21 21 21 21 20 18 16 15 14 13 13 12 11 11 11 12 12 13 14 13 12 12 13 14 14 16 17 19 20 20 20 19 20 22 23 24 23 22 21 20 20 20 20 20 20 19 18 17 18 19 19 18 18
36 34 32 32 32 30 30 32 32 31 29 28 28 28 27 27 27 26 26 26 25 24 25 25 25 25 24 24 24 24 24 23 23 22 21 20 19 17 16 15 14 14 15 14 13 12 12 12 13 14 15 14 15 15 16 16 17 18 18 18 18 18 18 18 19 21 22 23 23 22 21 20 19 19 19 19 18 17 17 16 16 17 18 18 16
36 33 32 31 31 30 28 30 33 33 31 27 26 27 27 27 27 27 28 28 27 26 26 26 26 26 26 25 25 25 24 23 22 20 18 17 16 15 14 14 15 16 17 17 16 15 15 15 15 15 15 16 17 18 18 19 19 20 20 20 20 19 18 18 19 20 21 22 22 21 20 20 19 18 18 18 18 16 15 15 15 15 16 17 16
33 33 33 30 29 29 29 29 30 32 31 30 29 28 27 27 27 27 28 30 30 30 28 26 26 25 24 23 23 22 22 22 22 21 21 20 18 17 17 17 17 18 19 20 20 19 18 17 17 17 17 18 19 20 21 21 22 22 22 22 22 21 21 21 21 21 21 22 22 21 20 19 19 18 17 18 18 17 15 14 14 14 14 14 15
30 33 34 31 28 28 30 31 31 30 29 29 29 29 28 28 27 27 26 27 29 31 31 30 28 26 25 24 24 23 23 24 23 22 21 20 19 18 18 18 18 19 20 21 21 21 20 19 19 19 19 20 20 21 22 22 22 22 21 21 21 22 23 24 23 22 22 22 21 20 20 19 19 18 18 17 17 17 16 15 14 14 13 12 13
28 31 32 30 28 29 30 31 32 31 29 27 27 27 28 28 28 27 26 25 25 28 29 30 30 28 27 26 25 24 23 23 22 21 20 19 18 17 17 17 17 17 18 19 19 20 21 22 21 21 21 21 21 22 22 21 21 21 21 20 20 21 23 25 25 24 23 21 20 19 19 20 20 19 18 18 18 17 17 15 15 15 14 12 11
28 30 29 29 30 31 30 29 29 29 27 25 25 26 29 30 29 28 27 25 25 25 26 27 26 25 23 22 21 21 21 21 21 22 22 22 22 22 21 21 21 21 21 21 21 21 21 22 22 21 22 22 22 23 23 23 23 22 21 21 20 20 21 24 25 26 25 22 19 18 18 19 20 20 19 18 18 18 18 17 16 16 16 15 12
Wind_Direction
206 211 214 218 223 222 221 221 220 224 225 222 208 189 179 178 181 186 189 191 192 189 183 173 166 160 153 149 145 137 122 107 91 75 84 97 91 75 61 59 59 60 59 53 49 50 51 49 45 41 35 29 26 24 22 20 17 15 12 9 8 7 9 9 0 353 356 0 358 357 358 355 353 354 351 347 346 346 344 342 340 339 338 336 333
212 219 223 226 227 225 222 220 218 216 208 197 185 176 175 179 185 190 193 193 189 183 176 166 158 153 150 148 146 139 123 101 77 54 58 92 91 73 55 55 62 67 64 55 50 48 46 44 40 36 30 25 22 20 19 18 14 12 11 6 3 5 8 7 360 351 350 354 356 355 356 354 351 352 351 347 346 345 343 342 340 338 337 336 333
221 225 226 225 223 217 212 206 198 191 183 177 174 174 177 184 189 194 196 192 183 174 168 163 158 154 153 151 148 142 126 109 88 58 31 46 64 64 58 56 62 68 63 54 48 44 40 38 34 29 24 20 18 18 16 14 11 9 8 5 360 360 5 5 359 350 345 347 351 351 351 351 349 349 349 345 343 342 340 339 338 336 335 334 332
221 220 219 216 209 201 196 190 183 177 172 170 172 176 181 186 191 196 196 187 175 168 165 163 160 156 153 150 146 142 135 127 111 78 39 39 44 50 57 60 66 68 60 50 43 38 36 32 27 23 19 18 17 16 13 9 8 7 6 4 0 357 1 2 358 351 344 343 347 349 348 346 345 345 345 342 340 339 337 335 334 333 332 331 330
212 210 210 207 199 194 190 186 179 173 170 171 174 178 183 189 193 196 195 181 169 168 167 163 160 157 154 150 146 145 144 133 113 92 67 59 47 42 53 65 72 66 52 44 38 32 30 24 19 17 16 17 17 13 10 7 4 5 5 5 4 359 358 358 355 353 348 344 345 347 347 344 341 342 342 339 336 336 335 333 332 330 330 330 328
205 204 206 201 195 193 189 183 176 173 172 174 177 182 187 191 193 193 190 180 172 172 170 165 162 160 157 152 147 142 135 120 105 94 82 70 51 42 55 71 71 57 42 38 31 23 21 16 11 12 14 15 14 10 7 5 3 4 4 5 5 1 356 356 355 353 351 347 346 345 345 343 339 339 340 338 335 334 333 332 330 329 329 328 327
204 204 203 200 196 192 185 179 175 174 175 177 181 186 191 193 193 188 182 178 178 176 171 167 165 161 157 151 143 132 121 116 106 101 91 73 58 51 62 74 71 54 34 30 22 14 13 9 5 9 13 13 12 8 5 4 4 4 2 1 0 357 354 354 354 354 351 348 347 345 343 342 339 337 338 338 335 333 333 330 328 328 328 326 325
205 203 202 202 198 190 182 177 176 177 179 182 185 189 192 193 191 185 177 178 181 178 171 169 166 161 154 145 136 124 114 115 109 107 99 82 78 67 71 79 78 59 29 20 15 6 3 2 2 6 11 11 9 7 7 7 7 6 3 360 355 351 351 352 352 353 351 348 347 346 342 340 339 337 337 338 335 334 333 329 325 325 325 324 323
203 202 204 203 195 186 180 178 179 182 184 186 187 189 192 192 191 184 178 179 182 177 171 169 163 156 150 139 131 123 114 117 117 108 103 100 104 89 83 94 96 58 24 13 7 0 356 357 1 4 7 9 9 8 10 11 9 6 3 360 355 351 349 349 350 351 350 348 347 346 342 340 340 338 337 337 335 332 331 328 323 322 323 322 321
203 204 203 198 189 183 181 180 182 185 187 189 190 191 192 192 191 185 180 182 183 177 171 167 158 151 146 136 130 125 119 123 121 110 104 108 116 109 98 102 100 55 8 2 2 356 353 356 359 2 5 7 8 8 8 8 7 4 0 358 356 353 350 348 349 349 348 346 345 345 342 339 339 338 336 335 335 331 329 327 323 323 323 321 320
204 204 198 190 186 184 183 184 186 188 189 190 191 192 192 192 190 185 182 185 182 175 171 165 157 151 144 136 131 128 127 124 119 113 111 112 125 130 116 102 93 64 12 7 2 351 351 356 358 1 6 9 8 5 3 3 2 360 357 356 356 356 354 351 349 348 347 344 344 344 341 338 338 339 337 336 335 331 328 326 324 324 324 321 319
204 201 192 187 187 186 186 188 189 191 192 192 193 194 193 194 191 184 182 184 180 173 170 164 157 150 143 140 139 134 130 124 116 113 114 114 126 139 135 121 103 60 22 31 16 353 351 355 360 6 10 11 8 2 359 358 358 356 355 356 355 356 354 351 349 347 345 344 343 343 342 340 339 340 340 337 335 332 329 328 327 325 322 319 317
204 198 191 189 189 188 190 192 193 194 193 193 195 195 195 196 193 183 181 183 178 171 167 163 157 150 144 144 142 136 127 118 111 105 103 108 114 134 148 155 187 266 332 26 33 5 356 358 7 15 14 11 7 1 356 355 354 354 354 354 354 353 350 348 346 345 344 344 342 343 345 343 340 341 342 339 336 333 331 329 328 326 322 320 317
203 198 192 191 191 190 193 195 196 196 195 195 196 196 197 197 192 183 182 182 176 168 165 161 154 147 144 140 136 130 121 112 107 100 93 90 86 211 201 200 219 253 299 331 343 351 359 8 15 16 14 11 7 1 356 354 353 353 353 353 353 353 350 348 347 345 346 346 344 345 349 349 345 344 345 343 338 335 333 331 330 328 324 322 318
203 198 193 192 192 193 195 197 198 198 196 195 195 195 196 195 190 184 182 182 176 167 162 158 151 145 140 135 131 125 116 108 103 98 93 86 82 142 203 211 225 252 284 303 315 333 359 20 19 15 15 13 7 1 356 354 354 353 354 354 354 354 353 352 350 348 348 349 349 350 354 355 352 350 349 347 341 337 336 335 334 331 328 324 321
201 197 194 193 193 195 197 198 199 199 196 195 194 192 192 192 188 182 180 180 175 166 159 155 149 144 137 132 129 122 114 109 104 99 94 87 81 92 162 200 223 254 276 294 320 339 1 22 21 19 19 13 7 2 357 355 356 355 354 355 354 354 355 355 353 351 350 350 350 353 357 358 357 355 354 350 345 342 340 339 339 336 332 328 325
201 197 195 194 194 196 199 200 200 200 198 195 193 190 190 190 188 181 178 177 172 164 157 151 147 143 136 131 128 122 117 113 106 99 92 84 78 77 89 165 234 263 281 308 336 352 14 30 25 22 20 13 6 2 359 358 359 357 356 355 355 355 356 356 354 353 352 351 350 351 355 358 0 0 358 355 351 347 344 342 341 339 336 332 327
200 198 196 195 196 198 200 202 201 200 198 194 191 190 188 189 188 180 174 172 168 161 156 150 145 142 138 133 130 125 120 115 108 99 90 81 73 67 62 58 263 268 295 337 4 27 47 43 31 24 18 12 6 2 1 1 0 359 358 356 355 356 356 355 354 353 353 353 351 351 353 358 2 2 360 357 354 351 348 344 342 340 337 333 328
200 199 197 196 197 200 201 202 202 200 196 192 191 190 188 186 185 178 170 168 165 159 156 152 146 142 139 134 130 124 117 110 103 95 87 80 72 63 54 56 75 80 79 81 78 73 64 47 35 28 19 12 7 3 2 2 1 1 360 357 356 356 356 356 355 354 354 354 354 355 357 0 3 3 0 358 356 354 352 348 345 341 338 334 331
200 199 198 197 198 201 201 201 201 198 194 191 190 189 186 183 180 174 167 163 162 158 154 151 145 140 136 130 125 119 111 101 94 86 80 76 72 66 60 64 75 79 82 89 88 76 60 45 37 29 20 13 8 4 2 2 1 1 1 359 357 356 356 358 359 357 356 355 356 359 360 1 4 4 1 359 358 356 353 351 350 347 341 337 334
200 199 199 198 200 201 201 201 200 197 194 192 189 187 185 182 178 172 165 162 160 157 153 149 144 139 134 127 120 114 104 94 86 78 74 71 68 66 65 67 72 75 78 80 74 61 51 43 35 27 19 13 9 4 2 1 0 1 3 1 359 357 357 358 360 359 358 357 358 1 2 3 6 6 2 360 359 357 354 354 356 354 348 343 340
200 199 199 199 200 201 201 200 199 196 194 193 190 186 183 182 177 172 167 164 161 159 156 151 146 142 136 129 121 111 101 90 80 73 71 69 66 63 64 66 68 71 73 70 62 54 48 41 33 25 18 13 9 5 2 1 360 1 3 3 1 0 0 1 2 2 1 0 2 4 5 6 7 6 3 1 360 357 356 358 360 359 358 357 355
200 199 199 200 200 201 200 199 198 196 195 193 191 187 184 181 177 174 170 168 166 164 161 157 154 149 144 137 127 115 103 91 80 74 71 69 63 59 61 63 64 68 68 63 56 51 47 40 31 23 17 14 11 7 4 2 360 359 2 4 5 5 4 4 5 4 3 4 6 7 8 8 8 6 3 1 1 1 2 3 4 3 5 9 12
199 199 200 200 200 200 200 199 198 197 196 194 191 188 185 181 179 177 174 173 173 169 164 162 161 159 154 150 141 127 114 98 83 78 78 72 61 55 58 60 58 59 58 54 52 49 43 36 27 20 16 14 12 9 6 4 1 359 0 4 7 8 7 6 7 6 5 7 9 10 11 11 10 8 5 4 5 6 7 8 8 8 11 16 19
199 199 201 201 200 201 200 198 198 198 198 195 191 188 186 184 183 182 180 181 181 175 168 165 167 167 167 165 156 141 130 115 96 93 91 78 60 51 55 56 55 55 52 48 47 45 40 32 23 16 14 13 13 11 8 7 3 0 1 4 8 10 9 8 7 7 7 10 11 12 12 12 12 12 11 11 11 10 9 10 10 11 15 20 24
199 200 201 201 201 201 199 197 199 200 198 195 192 191 191 189 188 187 185 185 183 178 172 170 172 178 185 186 176 161 150 139 122 115 106 87 64 53 53 50 49 51 49 45 43 40 37 30 20 14 13 12 11 10 8 9 8 5 4 5 9 11 11 10 8 7 7 9 10 12 13 14 15 16 17 16 15 13 12 11 12 13 17 20 23
200 201 202 202 202 201 198 197 199 200 197 193 192 194 195 194 192 188 184 181 178 177 179 181 183 189 198 202 194 180 173 168 154 140 131 116 76 54 55 48 47 52 50 44 38 33 31 27 18 11 10 9 8 7 7 9 10 9 7 8 10 12 12 11 9 7 6 7 9 11 14 15 16 18 19 18 18 17 16 15 15 15 18 21 23
201 202 203 202 201 200 199 200 200 199 197 194 194 196 198 196 193 188 185 182 180 181 187 192 195 202 211 213 203 190 182 177 166 159 166 176 201 125 58 43 39 53 53 44 34 25 22 23 16 9 7 7 7 7 6 7 10 11 10 10 12 13 13 12 11 9 6 6 8 11 14 17 18 19 19 20 20 19 19 19 19 18 21 23 23
203 204 203 202 200 200 201 202 202 201 199 196 196 198 197 193 190 189 188 189 190 192 196 200 206 216 224 223 211 196 188 178 168 177 198 203 214 225 167 16 356 20 37 37 30 20 15 17 13 8 7 6 5 6 5 4 6 10 12 12 13 14 13 12 12 10 7 6 8 12 15 18 19 20 20 21 22 22 22 22 22 21 23 25 25
203 204 203 201 201 201 202 203 204 204 201 196 195 197 195 191 191 193 195 196 198 202 206 210 218 227 233 233 224 212 208 201 192 201 212 212 222 233 229 266 318 351 19 27 22 14 10 11 9 7 6 4 2 2 3 1 1 6 11 14 14 15 13 11 11 10 8 6 8 12 16 18 18 19 20 20 22 24 25 25 25 24 24 24 24
203 203 203 203 203 203 203 203 205 206 203 198 196 195 193 190 191 193 195 197 202 208 214 220 228 236 243 245 239 230 221 214 209 211 214 215 222 235 247 270 303 337 5 20 18 10 5 6 6 4 4 2 360 358 359 360 359 1 7 13 15 16 14 11 10 9 8 7 8 10 16 19 18 18 19 20 22 23 25 26 27 27 26 25 24
204 204 204 204 205 205 205 205 206 206 203 199 196 195 192 189 190 192 196 200 205 211 217 224 230 236 243 247 243 234 224 217 214 214 216 218 224 234 249 272 294 320 341 0 10 7 1 0 1 1 0 359 359 358 357 358 357 357 2 9 14 15 13 10 9 8 8 8 8 9 13 18 18 18 19 20 21 22 23 25 26 27 28 27 26
206 204 205 205 205 206 206 207 208 208 204 198 195 194 192 192 193 196 199 203 208 213 219 224 229 235 244 249 243 233 225 220 218 218 220 224 230 238 252 271 286 302 315 329 349 359 358 356 356 356 357 356 356 357 357 357 356 356 358 5 11 13 12 9 8 8 8 8 8 9 12 15 17 18 18 20 21 21 22 23 24 27 28 29 28
207 207 208 207 206 206 207 209 210 209 204 199 195 194 195 196 199 202 204 206 208 212 216 221 227 235 243 245 239 231 225 223 221 223 226 230 237 244 254 266 277 287 295 305 324 342 349 351 350 349 351 352 352 353 355 356 356 356 357 1 7 10 10 9 7 7 8 8 7 8 11 13 16 17 17 18 19 20 21 22 23 25 28 29 30
208 210 211 210 209 209 209 211 212 209 203 199 196 196 198 201 204 207 210 212 213 217 221 226 232 238 239 236 230 226 225 223 223 227 233 238 242 247 253 263 271 277 283 290 305 322 335 343 344 343 345 348 348 348 350 352 354 356 357 359 3 7 8 8 6 5 6 7 7 7 9 12 15 16 16 17 17 18 19 21 22 25 27 28 29
209 211 212 212 211 211 210 212 214 210 203 199 198 199 203 206 208 211 216 220 223 227 232 234 235 234 229 222 219 220 221 221 222 228 237 243 248 252 258 266 272 274 277 283 292 305 320 331 336 336 340 344 344 344 346 349 350 353 356 356 359 3 5 6 5 3 4 6 7 6 6 9 12 15 16 16 17 18 18 19 21 24 26 27 29
211 212 212 211 211 212 212 214 214 210 204 201 202 204 207 210 213 216 222 226 227 230 232 231 228 224 218 213 212 214 217 221 224 230 241 251 257 262 267 273 277 279 281 285 291 299 309 320 327 329 332 338 340 340 342 345 347 351 354 354 356 358 0 2 3 2 1 3 6 6 6 7 10 13 14 14 15 17 17 18 20 22 24 26 28
213 214 213 212 212 211 212 214 212 209 206 205 205 206 208 212 217 222 228 231 230 228 225 221 219 218 215 212 211 214 219 226 230 234 245 259 266 274 285 291 292 291 291 293 297 302 306 313 320 323 325 331 336 336 337 340 343 347 350 352 354 355 356 358 0 1 0 1 4 5 5 5 7 10 12 12 13 15 17 17 18 20 22 25 27
214 215 214 214 213 211 212 212 209 207 207 207 207 208 210 213 218 225 229 227 223 218 216 215 217 218 216 212 213 218 224 232 239 242 250 261 271 283 295 303 307 306 302 298 299 302 304 309 315 318 319 324 330 332 332 332 335 340 345 348 350 353 354 355 357 359 359 359 1 3 4 4 6 7 9 11 12 12 14 17 18 19 20 22 24
214 214 214 214 213 213 213 211 208 207 208 209 208 210 213 214 217 220 221 218 213 212 214 216 219 221 219 216 219 226 234 243 251 255 258 264 272 281 292 302 310 313 308 301 296 295 297 302 309 312 314 318 323 327 328 326 327 332 337 340 344 349 352 353 354 356 357 356 358 0 2 3 4 5 6 9 11 10 11 13 16 18 21 21 21
214 214 213 213 214 214 212 211 210 210 210 209 209 212 214 214 216 218 220 221 220 217 218 221 224 226 226 226 231 242 251 256 258 259 262 266 269 276 288 299 307 310 309 303 295 289 290 296 301 304 307 312 318 323 325 324 322 325 330 334 337 342 348 350 351 353 354 355 355 357 359 1 3 3 4 5 7 8 9 10 11 14 18 21 21
215 214 211 211 214 213 212 213 214 212 210 211 213 215 216 217 218 221 225 229 227 222 222 229 234 233 232 235 244 251 254 253 253 256 261 264 266 273 285 295 302 306 307 301 291 285 286 290 295 299 304 310 315 319 321 320 321 325 330 332 332 335 340 345 348 350 352 353 353 355 357 358 360 1 2 2 2 3 6 7 7 8 12 17 20
214 214 212 212 213 213 213 215 214 210 209 212 215 217 218 219 222 226 231 233 231 229 232 238 240 238 236 239 246 249 249 249 252 257 263 266 269 274 281 289 297 304 306 301 291 285 285 289 295 302 308 313 316 316 316 318 324 330 333 332 330 330 333 337 341 344 347 349 351 352 353 355 356 358 360 359 359 359 1 3 5 5 7 12 16
210 212 211 211 212 214 214 214 212 211 212 214 216 218 220 222 225 230 233 235 236 237 239 243 244 244 243 242 245 248 252 255 257 261 265 267 270 273 278 284 293 300 302 300 295 289 288 293 300 307 313 317 317 315 316 319 323 327 330 331 330 329 329 331 336 338 340 343 345 347 349 351 352 353 354 355 355 354 355 359 3 3 3 4 10
206 206 208 210 212 214 212 211 211 213 216 217 218 220 221 224 228 231 233 235 238 240 242 244 247 248 246 245 247 250 254 258 262 266 269 270 271 274 277 281 286 289 291 294 296 296 297 299 302 305 310 314 313 311 314 317 317 316 321 328 332 332 332 333 336 337 337 336 338 340 343 346 348 348 348 350 350 349 348 351 358 2 2 359 1
204 204 207 209 209 208 208 210 213 215 215 216 217 219 221 226 230 232 233 235 237 240 242 245 248 249 248 247 249 252 255 260 265 270 272 273 274 275 276 277 277 278 280 284 290 295 300 303 304 305 308 310 309 308 310 313 313 313 314 319 326 331 333 333 334 335 335 332 331 332 335 340 344 345 344 343 344 344 343 344 351 1 7 2 355
205 203 203 204 204 203 206 213 217 218 217 217 218 219 223 228 232 234 236 237 238 239 241 244 248 250 250 250 251 254 257 260 264 269 273 275 276 276 277 276 275 274 275 279 283 287 292 297 301 304 306 307 306 305 305 306 308 309 310 312 315 318 321 322 324 328 330 328 325 323 326 332 337 340 341 339 339 338 337 337 342 354 7 8 358
208 204 199 199 201 203 208 213 217 219 221 222 222 224 227 230 233 237 240 240 240 240 241 244 246 248 249 250 252 254 257 260 264 270 273 276 278 279 279 279 278 277 276 277 278 280 285 290 295 298 301 302 303 303 303 303 304 305 306 307 308 309 309 311 314 318 323 324 320 316 317 323 330 335 337 336 335 334 333 332 334 343 357 6 2
207 203 201 201 204 207 211 214 217 220 223 225 227 229 232 233 236 239 242 242 242 242 243 245 247 248 249 251 254 257 260 263 266 270 273 274 276 278 279 280 280 279 277 276 276 278 281 284 288 292 295 298 300 301 301 301 301 301 301 302 303 304 303 303 306 309 315 319 318 315 312 314 319 326 332 332 330 330 330 327 327 332 340 353 360
203 202 205 210 213 213 215 218 221 224 227 230 234 237 237 235 236 239 242 243 244 243 244 246 249 252 254 256 258 260 263 264 266 269 271 272 273 275 277 278 276 275 275 276 277 278 279 280 283 286 290 294 297 299 300 300 301 302 301 300 299 300 299 299 300 302 305 311 315 315 312 310 310 314 322 325 325 324 325 324 322 324 328 335 347
202 203 208 214 215 214 216 220 223 224 228 234 240 242 241 240 240 241 243 245 247 247 249 252 255 256 257 258 260 262 264 267 269 271 273 274 273 274 274 275 275 274 274 276 278 279 280 280 281 282 286 289 293 296 300 302 304 307 308 306 302 299 296 296 296 297 297 301 306 310 310 310 307 307 311 316 318 318 319 320 321 323 324 326 334
Height
1537 1538 1538 1539 1539 1539 1540 1540 1541 1542 1542 1543 1544 1545 1546 1547 1547 1548 1549 1550 1551 1552 1553 1553 1554 1554 1554 1554 1554 1554 1554 1554 1554 1554 1553 1553 1552 1552 1552 1551 1551 1551 1550 1550 1549 1549 1548 1548 1547 1546 1545 1543 1542 1541 1539 1537 1536 1534 1532 1530 1528 1525 1523 1520 1517 1513 1510 1507 1504 1500 1497 1493 1489 1486 1482 1477 1474 1471 1468 1466 1463 1460 1457 1455 1453
1536 1536 1537 1537 1537 1538 1538 1539 1540 1540 1541 1542 1543 1544 1545 1546 1547 1548 1549 1550 1551 1552 1553 1554 1554 1554 1554 1554 1554 1554 1554 1554 1554 1554 1554 1553 1552 1552 1552 1551 1551 1551 1551 1550 1550 1549 1549 1548 1547 1546 1545 1544 1542 1541 1539 1537 1535 1533 1531 1529 1527 1525 1522 1519 1516 1512 1508 1505 1502 1499 1496 1492 1488 1485 1481 1477 1472 1469 1465 1463 1460 1457 1455 1452 1449
1534 1535 1535 1535 1536 1537 1537 1538 1539 1539 1540 1542 1543 1544 1545 1546 1547 1548 1549 1550 1551 1552 1553 1554 1554 1554 1554 1554 1554 1554 1554 1554 1555 1554 1554 1553 1553 1552 1552 1551 1551 1551 1551 1551 1550 1550 1549 1548 1547 1546 1545 1544 1542 1541 1539 1537 1535 1533 1531 1529 1527 1524 1522 1519 1516 1512 1507 1503 1501 1497 1494 1491 1487 1484 1480 1477 1472 1468 1464 1460 1457 1455 1452 1449 1446
1533 1533 1534 1534 1535 1536 1536 1537 1538 1539 1540 1542 1543 1544 1545 1546 1547 1548 1549 1551 1552 1552 1553 1554 1554 1554 1554 1554 1554 1555 1555 1555 1555 1555 1554 1553 1553 1552 1552 1552 1552 1551 1551 1551 1551 1550 1549 1549 1548 1547 1546 1544 1542 1540 1538 1536 1534 1532 1530 1528 1526 1524 1522 1519 1516 1513 1508 1503 1499 1497 1493 1489 1486 1482 1479 1475 1471 1467 1463 1458 1455 1451 1448 1445 1442
1531 1532 1532 1533 1534 1535 1536 1537 1538 1539 1541 1542 1543 1544 1545 1546 1547 1548 1550 1551 1552 1552 1553 1553 1554 1554 1554 1555 1555 1555 1555 1555 1555 1554 1554 1553 1553 1552 1552 1552 1552 1552 1552 1552 1551 1551 1550 1549 1549 1548 1546 1544 1542 1540 1538 1536 1533 1531 1529 1527 1525 1523 1520 1518 1515 1512 1508 1503 1498 1495 1492 1488 1484 1481 1477 1473 1468 1464 1460 1456 1452 1448 1444 1441 1438
1530 1531 1532 1532 1533 1534 1535 1537 1538 1539 1541 1542 1543 1544 1545 1546 1547 1548 1550 1551 1552 1552 1553 1553 1554 1554 1555 1555 1555 1555 1555 1555 1554 1554 1554 1554 1553 1553 1553 1553 1553 1553 1552 1552 1552 1551 1550 1550 1549 1548 1546 1544 1542 1539 1537 1535 1533 1530 1528 1526 1523 1521 1519 1516 1513 1510 1507 1503 1498 1493 1490 1486 1482 1478 1475 1472 1467 1461 1456 1451 1447 1445 1442 1436 1432
1529 1530 1531 1532 1533 1534 1535 1537 1538 1539 1541 1542 1543 1544 1545 1546 1547 1549 1550 1551 1552 1552 1553 1553 1554 1554 1555 1555 1555 1555 1555 1555 1555 1554 1554 1554 1554 1554 1553 1553 1553 1553 1553 1552 1552 1552 1551 1550 1549 1548 1546 1543 1541 1539 1537 1534 1532 1530 1527 1525 1522 1520 1517 1515 1512 1509 1505 1501 1497 1493 1488 1485 1481 1476 1473 1470 1466 1462 1456 1449 1441 1437 1436 1433 1429
1528 1529 1531 1532 1533 1534 1535 1537 1538 1540 1541 1542 1543 1544 1545 1546 1548 1549 1550 1551 1552 1552 1553 1553 1554 1554 1555 1555 1555 1555 1555 1555 1555 1555 1554 1554 1554 1554 1554 1554 1553 1553 1553 1553 1553 1552 1552 1551 1549 1547 1546 1544 1541 1539 1536 1534 1531 1529 1527 1524 1522 1519 1516 1513 1510 1507 1504 1500 1496 1492 1488 1483 1479 1475 1471 1467 1463 1459 1456 1451 1442 1435 1430 1427 1425
1527 1529 1530 1532 1533 1534 1536 1537 1538 1540 1541 1542 1543 1544 1545 1546 1547 1549 1550 1551 1551 1552 1553 1553 1554 1554 1554 1555 1555 1555 1555 1555 1555 1555 1555 1555 1555 1555 1554 1554 1554 1554 1554 1554 1554 1553 1552 1551 1549 1548 1546 1544 1542 1539 1537 1534 1531 1528 1526 1523 1521 1518 1515 1512 1509 1505 1502 1498 1494 1490 1486 1482 1478 1473 1468 1465 1461 1456 1453 1449 1443 1437 1429 1422 1419
1527 1528 1530 1531 1533 1534 1536 1537 1538 1539 1541 1542 1543 1544 1545 1546 1548 1549 1550 1551 1551 1552 1553 1553 1554 1554 1554 1555 1555 1555 1555 1556 1556 1556 1555 1555 1555 1555 1555 1555 1555 1554 1554 1554 1554 1553 1552 1551 1549 1548 1546 1544 1541 1539 1536 1534 1532 1529 1526 1523 1520 1517 1514 1511 1508 1505 1501 1497 1493 1489 1485 1481 1477 1473 1468 1464 1461 1456 1451 1446 1439 1433 1428 1418 1411
1526 1528 1529 1531 1533 1534 1535 1537 1538 1539 1540 1542 1543 1544 1545 1546 1548 1549 1550 1550 1551 1552 1553 1553 1554 1554 1554 1554 1555 1555 1556 1556 1556 1556 1556 1555 1555 1555 1555 1555 1555 1554 1554 1554 1554 1553 1552 1551 1549 1547 1545 1543 1540 1538 1536 1533 1531 1529 1526 1523 1520 1517 1514 1510 1507 1504 1501 1497 1493 1489 1485 1480 1476 1472 1467 1462 1458 1454 1449 1444 1437 1430 1425 1418 1409
1525 1527 1529 1531 1532 1534 1535 1537 1538 1539 1540 1542 1543 1544 1545 1546 1548 1549 1550 1550 1551 1552 1553 1553 1553 1554 1554 1554 1555 1555 1556 1556 1556 1556 1556 1556 1556 1555 1555 1555 1555 1554 1554 1554 1554 1553 1552 1550 1549 1547 1545 1542 1540 1537 1535 1532 1530 1527 1525 1522 1520 1517 1514 1511 1507 1504 1500 1496 1492 1489 1485 1480 1475 1471 1466 1461 1455 1451 1446 1441 1436 1430 1424 1419 1411
1525 1526 1528 1530 1531 1533 1535 1536 1538 1539 1540 1542 1543 1543 1545 1546 1547 1549 1550 1550 1551 1552 1553 1553 1553 1554 1554 1555 1555 1555 1556 1556 1556 1556 1556 1556 1556 1556 1556 1555 1555 1554 1554 1554 1553 1552 1551 1550 1548 1546 1544 1542 1539 1536 1533 1531 1529 1526 1524 1521 1518 1516 1513 1511 1508 1505 1501 1497 1492 1488 1485 1480 1475 1470 1466 1460 1454 1447 1442 1437 1433 1428 1422 1416 1410
1524 1525 1527 1529 1531 1533 1534 1536 1537 1539 1540 1542 1543 1543 1545 1546 1547 1549 1549 1550 1551 1552 1552 1553 1553 1554 1554 1555 1555 1555 1556 1556 1556 1556 1556 1556 1556 1556 1556 1556 1555 1554 1554 1553 1553 1552 1550 1549 1548 1546 1543 1541 1538 1535 1533 1530 1528 1525 1522 1520 1517 1514 1512 1509 1506 1503 1500 1497 1493 1488 1484 1480 1475 1469 1464 1460 1454 1447 1440 1434 1428 1423 1418 1413 1407
1523 1524 1526 1528 1530 1532 1533 1535 1537 1539 1540 1541 1542 1543 1544 1546 1547 1549 1550 1550 1551 1552 1553 1553 1553 1554 1554 1555 1555 1556 1556 1556 1556 1557 1557 1556 1556 1556 1556 1555 1555 1554 1554 1553 1552 1551 1550 1548 1547 1545 1543 1540 1538 1535 1532 1530 1527 1524 1521 1518 1515 1513 1510 1507 1504 1501 1499 1496 1492 1488 1483 1479 1474 1469 1463 1458 1453 1447 1441 1434 1427 1420 1413 1407 1402
1521 1523 1525 1527 1529 1531 1532 1534 1536 1538 1539 1540 1542 1543 1544 1546 1547 1549 1549 1550 1551 1552 1552 1553 1553 1554 1555 1555 1556 1556 1556 1556 1557 1557 1557 1556 1556 1555 1555 1555 1555 1554 1553 1553 1552 1551 1549 1548 1546 1544 1542 1540 1538 1535 1533 1530 1527 1523 1520 1517 1514 1512 1509 1506 1504 1501 1498 1495 1491 1487 1482 1478 1473 1467 1462 1456 1451 1444 1437 1431 1424 1418 1410 1402 1396
1519 1521 1523 1525 1527 1530 1532 1533 1536 1537 1538 1540 1541 1542 1544 1545 1547 1548 1549 1550 1551 1552 1552 1553 1554 1554 1555 1555 1556 1556 1556 1557 1557 1557 1557 1556 1556 1555 1555 1555 1554 1554 1553 1552 1551 1550 1549 1547 1546 1544 1542 1540 1538 1535 1532 1529 1526 1522 1519 1516 1513 1510 1507 1505 1503 1500 1497 1494 1490 1486 1481 1476 1471 1465 1460 1454 1448 1441 1433 1426 1420 1414 1407 1399 1393
1517 1519 1522 1524 1526 1529 1531 1533 1535 1537 1538 1539 1540 1542 1543 1545 1547 1548 1550 1550 1551 1552 1553 1553 1554 1555 1555 1556 1556 1556 1557 1557 1557 1557 1557 1556 1556 1555 1555 1554 1554 1553 1552 1551 1550 1549 1548 1547 1545 1543 1541 1540 1538 1535 1532 1529 1526 1522 1518 1515 1512 1509 1506 1503 1500 1497 1495 1492 1488 1484 1479 1474 1468 1462 1457 1452 1446 1440 1432 1425 1418 1412 1406 1399 1392
1516 1518 1521 1523 1526 1528 1530 1532 1535 1536 1537 1539 1540 1541 1543 1545 1547 1548 1550 1551 1551 1552 1553 1554 1554 1555 1556 1556 1557 1557 1557 1557 1557 1557 1557 1556 1556 1555 1555 1554 1553 1552 1551 1550 1550 1549 1548 1546 1545 1543 1541 1540 1537 1535 1532 1529 1525 1522 1519 1515 1512 1508 1505 1502 1499 1495 1492 1489 1485 1481 1476 1472 1466 1460 1455 1449 1444 1438 1432 1425 1417 1410 1404 1398 1391
1515 1518 1520 1523 1526 1528 1530 1532 1534 1536 1537 1538 1540 1542 1543 1545 1547 1548 1549 1550 1551 1552 1553 1554 1554 1555 1556 1556 1556 1557 1557 1557 1557 1557 1556 1556 1556 1556 1555 1554 1553 1552 1551 1550 1549 1548 1547 1545 1544 1543 1541 1539 1537 1535 1532 1529 1526 1523 1519 1516 1512 1509 1506 1503 1500 1496 1492 1488 1484 1479 1474 1469 1464 1458 1452 1447 1441 1435 1429 1424 1417 1410 1403 1396 1389
1514 1517 1520 1522 1525 1527 1529 1531 1533 1535 1537 1538 1540 1541 1543 1545 1547 1548 1549 1550 1551 1552 1553 1554 1555 1555 1556 1556 1556 1556 1556 1556 1557 1556 1556 1556 1556 1556 1555 1554 1553 1551 1550 1550 1549 1547 1546 1545 1543 1542 1541 1539 1537 1534 1532 1529 1526 1523 1520 1517 1514 1511 1507 1503 1500 1496 1492 1488 1483 1479 1473 1468 1462 1456 1450 1445 1439 1432 1427 1421 1415 1408 1401 1394 1386
1513 1516 1519 1521 1524 1526 1528 1531 1533 1535 1537 1538 1539 1541 1543 1545 1547 1548 1549 1549 1551 1552 1552 1553 1554 1555 1556 1556 1556 1556 1556 1556 1556 1556 1556 1556 1556 1555 1554 1553 1552 1551 1550 1549 1548 1547 1546 1544 1543 1542 1541 1539 1537 1535 1532 1529 1526 1524 1521 1518 1515 1512 1508 1504 1500 1496 1492 1487 1482 1478 1472 1467 1461 1455 1449 1444 1437 1430 1424 1419 1413 1406 1400 1393 1386
1513 1515 1518 1520 1523 1525 1528 1530 1532 1534 1536 1537 1539 1541 1543 1545 1546 1547 1548 1549 1550 1551 1552 1553 1554 1554 1555 1555 1555 1556 1556 1556 1556 1556 1556 1556 1555 1555 1554 1553 1552 1551 1550 1549 1548 1546 1545 1544 1543 1542 1541 1539 1537 1535 1532 1529 1526 1524 1521 1519 1515 1512 1508 1504 1499 1495 1491 1487 1482 1477 1472 1467 1461 1455 1449 1443 1436 1429 1423 1417 1411 1404 1397 1391 1385
1512 1514 1517 1519 1522 1524 1527 1529 1531 1533 1535 1537 1538 1540 1542 1544 1545 1547 1548 1549 1550 1551 1552 1552 1553 1554 1554 1555 1555 1555 1555 1555 1555 1555 1555 1555 1555 1554 1554 1552 1551 1551 1550 1549 1548 1546 1545 1544 1543 1542 1541 1539 1537 1535 1532 1530 1527 1524 1521 1518 1515 1511 1507 1503 1499 1495 1491 1487 1482 1477 1473 1467 1461 1455 1449 1443 1437 1430 1424 1418 1411 1404 1397 1390 1384
1511 1513 1516 1518 1521 1523 1526 1528 1530 1532 1534 1536 1537 1539 1541 1542 1544 1546 1547 1548 1549 1550 1551 1552 1552 1553 1553 1554 1554 1554 1554 1555 1555 1555 1555 1555 1555 1554 1553 1552 1551 1550 1549 1548 1547 1546 1545 1544 1543 1542 1541 1539 1537 1535 1533 1530 1527 1524 1521 1518 1515 1511 1507 1503 1499 1495 1491 1487 1483 1479 1474 1469 1463 1457 1451 1445 1438 1431 1424 1417 1410 1403 1396 1389 1384
1510 1513 1515 1517 1520 1522 1525 1527 1529 1531 1533 1535 1536 1538 1540 1541 1543 1544 1546 1547 1549 1550 1550 1551 1551 1552 1552 1553 1553 1553 1553 1554 1554 1554 1554 1554 1554 1553 1553 1551 1551 1550 1549 1549 1547 1546 1545 1544 1543 1542 1540 1538 1537 1535 1533 1530 1528 1525 1521 1518 1515 1511 1507 1503 1499 1495 1492 1488 1484 1480 1475 1471 1465 1459 1453 1446 1438 1431 1424 1417 1409 1402 1395 1389 1383
1509 1512 1514 1517 1519 1521 1523 1526 1528 1530 1532 1534 1536 1538 1539 1541 1542 1543 1544 1546 1547 1548 1549 1550 1550 1551 1551 1552 1552 1552 1553 1553 1553 1553 1553 1553 1553 1553 1552 1551 1550 1550 1549 1548 1547 1546 1545 1544 1543 1542 1540 1538 1537 1535 1533 1530 1528 1525 1522 1518 1515 1512 1508 1505 1501 1497 1494 1490 1486 1482 1477 1472 1466 1460 1453 1446 1439 1433 1427 1419 1412 1404 1397 1391 1385
1509 1511 1514 1516 1518 1520 1522 1525 1527 1529 1531 1532 1535 1537 1539 1540 1542 1543 1544 1545 1546 1547 1548 1549 1549 1550 1550 1551 1551 1551 1552 1552 1552 1552 1552 1552 1552 1552 1551 1551 1550 1549 1549 1548 1547 1546 1545 1544 1543 1542 1540 1538 1536 1535 1532 1530 1527 1525 1522 1519 1516 1512 1509 1506 1503 1499 1495 1491 1488 1483 1478 1473 1467 1461 1455 1449 1442 1436 1429 1423 1416 1409 1402 1395 1389
1508 1511 1513 1515 1517 1519 1522 1524 1526 1527 1529 1532 1534 1536 1538 1540 1541 1543 1544 1545 1546 1547 1547 1548 1549 1549 1550 1550 1550 1551 1551 1551 1551 1551 1551 1551 1551 1551 1550 1550 1549 1549 1548 1547 1547 1546 1545 1544 1542 1541 1539 1537 1535 1533 1531 1529 1527 1525 1522 1519 1516 1513 1509 1506 1503 1499 1496 1492 1488 1484 1479 1474 1469 1463 1457 1451 1445 1439 1433 1426 1420 1414 1407 1401 1395
1507 1509 1511 1513 1515 1518 1520 1523 1525 1526 1528 1530 1532 1535 1537 1539 1541 1542 1543 1544 1545 1546 1547 1548 1548 1549 1550 1550 1550 1550 1550 1550 1550 1550 1550 1550 1550 1550 1549 1549 1549 1548 1547 1546 1546 1545 1544 1543 1542 1540 1538 1537 1535 1533 1531 1529 1527 1524 1522 1519 1516 1513 1510 1506 1503 1500 1497 1493 1489 1485 1481 1476 1471 1466 1460 1454 1448 1443 1437 1431 1425 1419 1412 1407 1401
1504 1507 1509 1511 1513 1516 1518 1521 1523 1525 1527 1529 1531 1533 1535 1537 1539 1541 1542 1543 1544 1546 1546 1547 1548 1549 1549 1549 1549 1549 1549 1549 1549 1549 1549 1549 1549 1548 1548 1548 1547 1547 1546 1546 1545 1544 1543 1542 1541 1540 1538 1537 1535 1533 1531 1529 1527 1524 1522 1519 1517 1513 1510 1507 1504 1501 1498 1494 1490 1487 1483 1478 1474 1469 1464 1458 1452 1447 1441 1435 1430 1424 1418 1413 1408
1502 1504 1506 1509 1512 1514 1517 1519 1521 1523 1525 1527 1530 1532 1534 1535 1537 1539 1540 1542 1543 1545 1546 1546 1547 1547 1548 1548 1548 1548 1548 1548 1548 1548 1548 1548 1548 1547 1547 1546 1546 1546 1545 1545 1544 1544 1543 1542 1541 1539 1538 1536 1535 1533 1531 1529 1527 1525 1522 1519 1517 1514 1511 1508 1505 1502 1499 1495 1492 1488 1484 1480 1476 1472 1467 1462 1456 1451 1445 1439 1434 1428 1423 1419 1413
1499 1502 1504 1507 1510 1513 1515 1517 1519 1521 1523 1525 1528 1530 1532 1533 1535 1537 1538 1540 1542 1543 1544 1545 1545 1546 1547 1547 1547 1547 1547 1547 1547 1547 1547 1546 1546 1546 1546 1545 1545 1544 1544 1544 1543 1543 1542 1541 1540 1539 1538 1536 1535 1533 1531 1529 1527 1525 1522 1520 1517 1515 1512 1509 1507 1503 1500 1497 1493 1490 1486 1482 1478 1474 1470 1465 1460 1455 1449 1444 1439 1434 1429 1424 1419
1498 1500 1502 1505 1508 1511 1513 1515 1517 1520 1522 1524 1526 1528 1530 1532 1534 1535 1537 1538 1539 1541 1542 1543 1544 1545 1545 1546 1546 1546 1546 1546 1546 1546 1545 1545 1545 1545 1544 1544 1543 1543 1543 1543 1542 1542 1541 1540 1539 1538 1537 1536 1534 1533 1531 1529 1527 1525 1522 1520 1518 1515 1513 1510 1507 1504 1501 1498 1494 1491 1488 1484 1480 1476 1472 1468 1463 1459 1454 1449 1444 1439 1434 1429 1425
1496 1499 1501 1503 1506 1508 1511 1514 1516 1518 1521 1523 1525 1527 1529 1531 1533 1534 1536 1537 1538 1539 1540 1541 1542 1543 1544 1544 1544 1544 1544 1544 1544 1544 1544 1544 1544 1543 1543 1543 1542 1542 1542 1541 1541 1540 1540 1539 1538 1538 1537 1536 1534 1532 1531 1529 1527 1524 1522 1520 1518 1515 1513 1510 1508 1505 1502 1499 1495 1492 1489 1486 1482 1479 1475 1471 1466 1462 1458 1453 1449 1444 1439 1435 1431
1494 1497 1499 1501 1504 1507 1510 1512 1514 1517 1519 1521 1524 1526 1528 1530 1531 1533 1535 1536 1537 1538 1539 1540 1541 1541 1542 1542 1542 1542 1543 1543 1543 1543 1542 1543 1542 1542 1542 1541 1541 1541 1541 1540 1540 1539 1539 1538 1537 1537 1536 1535 1534 1532 1530 1528 1527 1524 1522 1520 1518 1515 1513 1510 1508 1505 1503 1499 1496 1493 1490 1487 1484 1480 1477 1474 1470 1466 1462 1458 1454 1449 1445 1441 1436
1491 1494 1496 1499 1502 1505 1508 1511 1513 1515 1518 1521 1523 1525 1527 1529 1530 1532 1533 1534 1535 1536 1537 1538 1538 1539 1539 1540 1540 1541 1541 1541 1541 1541 1541 1541 1541 1540 1540 1540 1540 1540 1539 1539 1538 1538 1537 1537 1536 1536 1535 1534 1533 1531 1530 1528 1526 1524 1522 1520 1518 1515 1513 1510 1508 1506 1503 1500 1497 1494 1491 1488 1485 1482 1479 1476 1472 1469 1465 1461 1457 1454 1450 1445 1441
1489 1491 1494 1497 1501 1504 1507 1509 1512 1514 1517 1519 1522 1524 1526 1528 1529 1530 1531 1532 1533 1535 1535 1536 1536 1537 1537 1538 1539 1539 1539 1539 1539 1539 1539 1539 1539 1539 1539 1539 1539 1538 1538 1538 1537 1536 1536 1535 1535 1534 1534 1533 1532 1531 1529 1527 1526 1524 1521 1519 1517 1515 1513 1511 1508 1506 1504 1501 1498 1495 1493 1490 1487 1484 1481 1478 1474 1471 1468 1464 1461 1457 1453 1449 1445
1489 1491 1493 1496 1499 1502 1505 1507 1510 1512 1515 1517 1520 1522 1524 1526 1527 1528 1529 1530 1531 1532 1533 1534 1534 1535 1536 1537 1537 1537 1537 1537 1537 1538 1538 1538 1538 1538 1537 1537 1537 1537 1536 1536 1535 1535 1534 1534 1533 1533 1532 1532 1531 1530 1528 1526 1525 1523 1521 1519 1517 1515 1513 1511 1508 1506 1504 1501 1499 1496 1494 1491 1488 1485 1483 1480 1477 1474 1471 1468 1464 1460 1457 1453 1450
1488 1491 1494 1496 1498 1501 1503 1505 1507 1509 1512 1515 1518 1519 1521 1523 1524 1526 1527 1528 1530 1531 1532 1532 1533 1533 1534 1535 1535 1534 1534 1535 1535 1536 1536 1536 1536 1536 1536 1535 1535 1535 1534 1534 1534 1533 1532 1532 1531 1531 1531 1530 1529 1528 1527 1525 1524 1522 1520 1518 1517 1515 1513 1510 1508 1506 1504 1502 1499 1497 1494 1492 1489 1487 1484 1481 1479 1476 1473 1470 1468 1464 1461 1458 1454
1487 1490 1493 1496 1498 1501 1503 1504 1506 1508 1510 1513 1515 1517 1518 1520 1522 1524 1526 1527 1528 1529 1530 1531 1531 1532 1533 1533 1533 1533 1533 1533 1534 1534 1534 1534 1534 1534 1534 1534 1534 1533 1533 1532 1532 1531 1531 1530 1530 1529 1529 1528 1528 1527 1525 1524 1523 1521 1519 1518 1516 1514 1512 1510 1508 1506 1504 1502 1500 1497 1495 1493 1490 1488 1485 1483 1480 1478 1475 1473 1470 1467 1464 1461 1458
1487 1490 1493 1495 1498 1500 1502 1504 1506 1508 1510 1512 1514 1515 1517 1519 1520 1522 1524 1525 1526 1528 1528 1529 1530 1531 1531 1531 1531 1531 1531 1531 1532 1532 1532 1532 1532 1532 1532 1532 1532 1532 1531 1530 1530 1529 1529 1528 1528 1528 1527 1526 1526 1525 1524 1523 1521 1520 1518 1517 1515 1513 1512 1510 1508 1506 1504 1502 1500 1498 1495 1493 1491 1489 1486 1484 1482 1479 1477 1474 1472 1470 1467 1464 1461
1486 1489 1492 1495 1496 1498 1501 1503 1505 1507 1509 1511 1513 1515 1516 1517 1519 1521 1522 1523 1524 1525 1526 1527 1528 1529 1529 1529 1529 1529 1528 1529 1529 1529 1530 1530 1530 1530 1530 1530 1530 1530 1529 1528 1528 1528 1527 1527 1526 1526 1525 1525 1524 1523 1522 1521 1520 1519 1517 1516 1514 1512 1511 1509 1507 1505 1503 1501 1500 1498 1496 1494 1491 1489 1487 1485 1482 1480 1478 1476 1473 1471 1469 1467 1464
1484 1487 1490 1492 1494 1497 1499 1501 1503 1505 1507 1509 1511 1513 1514 1516 1517 1518 1520 1521 1522 1523 1524 1525 1526 1526 1526 1527 1526 1526 1526 1526 1527 1527 1528 1528 1528 1528 1528 1528 1528 1528 1527 1527 1527 1526 1526 1525 1524 1524 1523 1523 1522 1521 1520 1519 1518 1517 1516 1514 1513 1511 1509 1508 1506 1505 1503 1501 1499 1497 1495 1494 1491 1489 1487 1485 1483 1481 1479 1476 1474 1472 1470 1469 1466
1482 1485 1487 1490 1493 1495 1497 1500 1502 1504 1506 1508 1509 1511 1512 1514 1515 1516 1517 1518 1519 1520 1521 1522 1523 1524 1524 1524 1523 1523 1523 1524 1525 1525 1525 1525 1525 1526 1526 1526 1526 1526 1526 1526 1525 1525 1524 1523 1522 1522 1521 1521 1520 1519 1518 1518 1517 1516 1515 1513 1511 1510 1508 1507 1505 1504 1502 1500 1499 1497 1495 1493 1491 1489 1487 1485 1483 1481 1479 1477 1475 1473 1471 1470 1468
1479 1482 1485 1488 1490 1493 1495 1498 1501 1502 1504 1506 1507 1509 1510 1511 1512 1514 1515 1516 1517 1518 1518 1519 1520 1521 1521 1521 1521 1521 1521 1522 1522 1523 1523 1523 1523 1523 1523 1523 1523 1524 1524 1524 1524 1523 1522 1521 1521 1520 1519 1519 1518 1518 1517 1516 1515 1514 1513 1512 1510 1509 1507 1506 1504 1503 1501 1499 1498 1496 1494 1493 1491 1489 1487 1485 1484 1482 1480 1478 1476 1475 1473 1471 1469
1477 1480 1483 1486 1488 1491 1494 1496 1498 1500 1502 1504 1505 1507 1508 1509 1510 1511 1512 1513 1514 1515 1516 1517 1518 1518 1518 1518 1518 1518 1519 1519 1520 1520 1521 1521 1521 1521 1521 1521 1521 1521 1521 1521 1521 1521 1520 1519 1518 1518 1517 1516 1516 1515 1515 1514 1513 1512 1511 1510 1508 1507 1506 1504 1503 1501 1500 1498 1497 1495 1493 1492 1490 1488 1487 1485 1484 1482 1480 1479 1477 1475 1474 1472 1470
1475 1478 1482 1484 1487 1489 1492 1494 1496 1498 1500 1502 1503 1505 1506 1507 1508 1509 1510 1511 1512 1513 1513 1514 1515 1515 1516 1516 1516 1516 1516 1517 1517 1518 1518 1518 1518 1518 1518 1518 1518 1518 1518 1518 1518 1518 1517 1517 1516 1515 1515 1514 1513 1513 1512 1511 1511 1510 1509 1508 1507 1505 1504 1503 1501 1500 1498 1497 1495 1493 1492 1491 1489 1488 1486 1485 1483 1482 1480 1479 1477 1476 1474 1472 1471
1474 1477 1479 1482 1485 1488 1490 1492 1494 1496 1498 1500 1501 1502 1503 1504 1505 1506 1507 1508 1509 1510 1510 1511 1512 1513 1513 1513 1513 1514 1514 1514 1514 1515 1515 1515 1515 1515 1515 1515 1515 1515 1515 1515 1515 1515 1514 1514 1513 1512 1512 1511 1510 1510 1509 1508 1508 1507 1506 1505 1504 1503 1502 1501 1499 1498 1497 1495 1493 1492 1490 1489 1488 1486 1485 1484 1482 1481 1480 1478 1477 1476 1474 1473 1471
1473 1476 1478 1481 1484 1486 1488 1490 1492 1494 1496 1498 1499 1499 1500 1501 1502 1503 1504 1505 1506 1507 1508 1509 1509 1510 1510 1510 1511 1511 1511 1511 1512 1512 1512 1512 1513 1513 1513 1513 1512 1512 1512 1512 1512 1511 1511 1511 1510 1510 1509 1508 1507 1507 1506 1505 1505 1504 1503 1502 1501 1500 1500 1498 1497 1496 1495 1493 1492 1490 1489 1487 1486 1485 1484 1482 1481 1480 1479 1478 1477 1476 1474 1473 1471
1472 1475 1477 1480 1482 1484 1486 1488 1490 1492 1494 1495 1496 1496 1497 1498 1499 1500 1501 1502 1503 1504 1505 1506 1507 1507 1508 1508 1508 1508 1508 1509 1509 1509 1509 1509 1510 1510 1509 1509 1509 1509 1509 1509 1508 1508 1508 1507 1507 1506 1506 1505 1505 1504 1503 1502 1501 1500 1500 1499 1498 1497 1497 1496 1495 1494 1493 1491 1490 1488 1487 1486 1484 1483 1482 1481 1480 1479 1478 1477 1476 1475 1474 1472 1471